THORAD AGENA D DEB, 4951

Orbit data source: Space-Track

THORAD AGENA D DEB, 4951 is space debris in SSO originally from a launch on Wed, 08 Apr 1970 UTC launched from the Air Force Western Test Range (AFWTR). Debris objects in space refer to the collection of defunct objects orbiting the Earth. Examples of debris include non-operational satellites, rocket bodies, and fragments generated from explosions, collisions, or faulty payload assembly.

Loading next visibility...
Identifier
4951, 1970-025GM
Orbit
SSO
Country
Flag of USUS
Related business
Manufacturer
Unknown
Mission
Spacecraft
Bus & Motor
Unknown
Mass
Unknown
Launch date (UTC)
1970-04-08 (56 years ago)
Launch vehicle
Unknown
Launch site
Air Force Western Test Range (AFWTR)
Object type
Payload
Rocket body
Debris
Shape & HBR
Unknown shape, 0.1 m
Radar Cross Section
Medium (>0.1 m² and <1 m²)

Expand to show TLE details & history
Last TLE update: 20 hours ago

TLE from 20 hours ago
0 THORAD AGENA D DEB
1 04951U 70025GM  26255.48601674  .00000103  00000-0  19852-3 0  9991
2 04951 100.1892 255.0144 0016786 268.1512 244.2240 13.61281006794710
Epoch: 2026-09-12T11:39Z
TLE epoch observation values (Epoch: 2026-09-12T11:39:51.846Z)
Latitude
27.36252°
Longitude
-86.13642°
Altitude
1,039.697 km
Speed
7.332 km/s
True Right ascension
05h 21m 17s
True Declination
27° 13' 40"
Sunlit
Object was in daylight at epoch
Visualization orbit readout
Latitude
Unknown
Longitude
Unknown
Altitude
Unknown
Speed
Unknown
Apparent Right ascension
Unknown
Apparent Declination
Unknown
Sunlit
N/A
Visualization observer readout
Local Sidereal Time
23:51:44
Azimuth
Unknown
Elevation
Unknown
Doppler factor
Unknown
Orbital elements
Apogee altitude
1,040.785 km
Perigee altitude
1,015.92 km
Semi-major axis
7,406.489 km
Eccentricity
0.00168
Inclination
100.1892°
RAAN
255.0144°
Arg. of periapsis
268.1512°
True anomaly
244.05094°
Mean anomaly
244.224°
Eccentric anomaly
244.13746°
Mean motion
3.40506 °/min
Orbital period
105.73 mins
BSTAR
0.00019852
Loading maneuver chart data...
Computing Atmospheric mass density...

Documentation

Showing up to 5 results
|